Regional Weather Roundup
Issued by NWS

Home | Current Version | Previous Version | Graphics & Text | Print | Product List | Glossary On
Versions: 1 2 3 4 5 6 7 8 9 10 11 12 13 14 15 16 17 18 19 20 21 22 23 24 25 26 27 28 29 30 31 32 33 34 35 36 37 38 39 40 41 42 43 44 45 46 47 48 49 50
000
ASUS45 KPSR 200710
RWRAZ

ARIZONA REGIONAL HOURLY WEATHER ROUNDUP
NATIONAL WEATHER SERVICE PHOENIX AZ
1200 AM MST SAT DEC 20 2014

NOTE: FAIR INDICATES FEW OR NO CLOUDS BELOW 12,000 FEET WITH NO
SIGNIFICANT WEATHER AND/OR OBSTRUCTIONS TO VISIBILITY.

AZZ001>003-036-200800-
NORTHWEST ARIZONA

CITY           SKY/WX    TMP DP  RH WIND       PRES   REMARKS
BULLHEAD CITY  CLEAR     50  41  71 E3        30.20R
KINGMAN        MOCLDY    39  34  82 SW6       30.19R WCI  35
$$

AZZ004>008-015-016-018-200800-
NORTH CENTRAL ARIZONA

CITY           SKY/WX    TMP DP  RH WIND       PRES   REMARKS
GRAND CANYON   CLOUDY    26  24  92 CALM      30.20F
PRESCOTT       CLOUDY    35  28  75 S9        30.18F WCI  28
FLAGSTAFF      CLOUDY    26  23  88 CALM      30.20F
PAYSON         CLOUDY    34  27  75 CALM      30.19F
PAGE           CLOUDY    37  29  72 SW3       30.21S HAZE
$$

AZZ009>014-017-200800-
NORTHEAST ARIZONA

CITY           SKY/WX    TMP DP  RH WIND       PRES   REMARKS
WINSLOW        MOCLDY    29  27  92 E6        30.23F WCI  23
SAINT JOHNS    CLEAR     27  24  89 S5        30.20S WCI  22
WINDOW ROCK    CLEAR     24  20  84 CALM      30.21R
SHOW LOW       CLEAR     21  19  93 CALM      30.22F
$$

AZZ023-200800-
GREATER PHOENIX AREA

CITY           SKY/WX    TMP DP  RH WIND       PRES   REMARKS
PHOENIX        MOCLDY    51  42  71 E6        30.12S
BUCKEYE          N/A     48  46  93 N7        30.13F
LUKE AFB       MOCLDY    47  44  87 NW8       30.13S
DEER VALLEY    MOCLDY    47  41  80 CALM      30.12F
SCOTTSDALE     CLOUDY    49  41  74 CALM      30.14S
MESA-GATEWAY   PTCLDY    43  41  93 SE5       30.15S
$$

AZZ027-028-200800-
SOUTHWEST MARICOPA COUNTY AND PINAL COUNTY

CITY           SKY/WX    TMP DP  RH WIND       PRES   REMARKS
CASA GRANDE    MOCLDY    43  39  87 CALM      30.14S
GILA BEND      FAIR      47  41  80 S5        30.14F
$$

AZZ503-504-507>509-200800-
SOUTHEAST ARIZONA

CITY           SKY/WX    TMP DP  RH WIND       PRES   REMARKS
TUCSON         CLEAR     44  39  82 SE5       30.17F
DAVIS-MONTHAN  MOCLDY    41  39  91 SE6       30.15F
NOGALES        CLEAR     35  30  82 E3        30.16S
SIERRA VISTA   CLEAR     37  28  70 SW7       30.17F WCI  32
DOUGLAS        CLEAR     31  28  89 SE6       30.17F WCI  25
SAFFORD        CLEAR     37  34  89 SE5       30.17F WCI  33
$$

AZZ020-021-025-026-031-200800-
SOUTHWEST ARIZONA

CITY           SKY/WX    TMP DP  RH WIND       PRES   REMARKS
YUMA           PTCLDY   N/A N/A N/A CALM      30.14S
$$

CAZ031-033-041-043-047-048-061-200800-
SOUTHERN CALIFORNIA

CITY           SKY/WX    TMP DP  RH WIND       PRES   REMARKS
DOWNTOWN L.A.  CLEAR     54  47  77 CALM      30.16F
L.A. AIRPORT   CLEAR     57  48  72 S3        30.17F
SAN DIEGO      MOCLDY    59  52  77 NE5       30.18F
BURBANK        CLEAR     52  46  80 NW3       30.16F
ONTARIO        PTCLDY    53  47  79 CALM      30.18S
RIVERSIDE      PTCLDY    51  47  86 E3        30.18F
PALM SPRINGS   MOCLDY    55  42  61 NW3       30.17F
EL CENTRO NAS  CLEAR     47  41  80 N3        30.15R
IMPERIAL       CLEAR     50  41  71 CALM      30.14S
BLYTHE         PTCLDY    50  48  93 NW6       30.15R
NEEDLES        PTCLDY    49  41  74 W3        30.17R
$$

NVZ020-UTZ003-200800-
SOUTHERN NEVADA-UTAH

CITY           SKY/WX    TMP DP  RH WIND       PRES   REMARKS
LAS VEGAS      PTCLDY    47  38  71 S8        30.15S
SALT LAKE CITY LGT RAIN  40  33  76 NW7       30.15S
$$

NMZ009-TXZ055-200800-
NEW MEXICO-WEST TEXAS

CITY           SKY/WX    TMP DP  RH WIND       PRES   REMARKS
ALBUQUERQUE    PTCLDY    33  24  69 N6        30.20F WCI  28
EL PASO        CLEAR     36  27  69 CALM      30.17S
$$


........................KEY........................
SKY/WX - SKY CONDITION/WEATHER
TMP    - TEMPERATURE IN FAHRENHEIT
DP     - DEW POINT IN FAHRENHEIT
RH     - RELATIVE HUMIDITY IN PERCENT
WIND   - DIRECTION AND SPEED IN MILES PER HOUR (MPH)
VRB    - VARIABLE WIND DIRECTION
PRES   - MEAN SEA LEVEL PRESSURE IN INCHES OF MERCURY
         F - FALLING PRESSURE   R - RISING PRESSURE
         S - STEADY PRESSURE
VSB    - VISIBILITY IN MILES
HX     - HEAT INDEX IN FAHRENHEIT
WCI    - WIND CHILL INDEX IN FAHRENHEIT
TC     - TEMPERATURE IN CELSIUS WHICH IS ALSO KNOWN AS
         TEMPERATURE IN CENTIGRADE
AFB    - AIR FORCE BASE
         LUKE AFB IS LUKE AIR FORCE BASE
         DAVIS-MONTHAN IS DAVIS-MONTHAN AIR FORCE BASE
NAS    - NAVAL AIR STATION
         EL CENTRO NAS IS EL CENTRO NAVAL AIR STATION
N/A    - NOT AVAILABLE


USA.gov is the U.S. government's official web portal to all federal, state and local government web resources and services.